Tracking 29892 objects as of 21-Nov-2024
HD Live streaming from Space Station
objects crossing your sky now

STARLINK-6311

Track STARLINK-6311 now!
10-day predictions
STARLINK-6311 is classified as:


NORAD ID: 56537
Int'l Code: 2023-065AL
Perigee: 565.6 km
Apogee: 566.9 km
Inclination: 43.0 °
Period: 95.8 minutes
Semi major axis: 6937 km
RCS: Unknown
Launch date: May 14, 2023
Source: United States (US)
Launch site: AIR FORCE EASTERN TEST RANGE (AFETR)
Your satellite tracking list
Your tracking list is empty




NASA's NSSDC Master Catalog

Two Line Element Set (TLE):
1 56537U 23065AL  24325.97094917 -.00000063  00000-0  10392-4 0  9993
2 56537  43.0039 277.5438 0000948 291.5949  68.4792 15.02531540 84434
Source of the keplerian elements: AFSPC